sat.trackr.live / text

‹ back to catalog

QPS-SAR-5 (TSUKUYOMI-I)

NORAD 58578 · 2023-196A

PAYLOAD ACTIVE UNKNOWN

§ Identity

Operator
Country
JPN
Launch date
2023-12-15
Launch site
RLLB
Launch vehicle
Mass (kg)
RCS (m²)

External: N2YO · Heavens-Above · Gunter

§ Orbital elements

Epoch: 2026-09-21T22:17:47.195808Z

Period
94.46 min
Inclination
42.0102°
Eccentricity
0.0027997
Mean motion
15.24524925 rev/d
Perigee alt
473.0 km
Apogee alt
511.4 km
Semi-major
6,870.3 km
B*
3.4830e-4
RAAN
184.1084°
Arg perigee
218.1787°
Mean anomaly
141.7064°
Rev number
15,300

§ Raw data

QPS-SAR-5 (TSUKUYOMI-I)1 58578U 23196A   26264.92901847  .00008610  00000+0  34830-3 0  99992 58578  42.0102 184.1084 0027997 218.1787 141.7064 15.24524925153009

JSON: /api/v1/satellites/58578 · /tle

For live sub-satellite position, see the globe view (requires WebGL).

§ Visibility from observer

Set your observer location to see the next 7 days of passes ≥ 10°. The values pass through the URL so the page stays shareable.

No JS? Fill the form by hand. The geolocation button needs JavaScript.